CZ-6A DEB, 61416

Orbit data source: Space-Track

CZ-6A DEB, 61416 is space debris in LEO originally from a launch on Tue, 06 Aug 2024 UTC launched from the Taiyaun Space Center, China (TSC). Debris objects in space refer to the collection of defunct objects orbiting the Earth. Examples of debris include non-operational satellites, rocket bodies, and fragments generated from explosions, collisions, or faulty payload assembly.

Loading next visibility...
Identifier
61416, 2024-140YH
Orbit
LEO
Country
Flag of CNCN / PRC
Related business
Manufacturer
SAST
Mission
Spacecraft
Bus & Motor
Unknown
Mass
Unknown
Launch date (UTC)
2024-08-06 (2 years ago)
Launch vehicle
Unknown
Launch site
Taiyaun Space Center, China (TSC)
Object type
Payload
Rocket body
Debris
Shape & HBR
Unknown shape, 0.1 m
Radar Cross Section
Small (<0.1 m²)

Expand to show TLE details & history
Last TLE update: 16 hours ago

TLE from 16 hours ago
0 CZ-6A DEB
1 61416U 24140YH  26171.25859230  .00001256  00000-0  29690-3 0  9993
2 61416  88.8857 260.7049 0072214 253.4467 105.8800 14.51990236 96972
Epoch: 2026-06-20T06:12Z
TLE epoch observation values (Epoch: 2026-06-20T06:12:22.374Z)
Latitude
-0.00007°
Longitude
-100.86412°
Altitude
736.622 km
Speed
7.479 km/s
True Right ascension
17h 22m 49s
True Declination
0° 00' 00"
Sunlit
Object was in full shadow at epoch
Visualization orbit readout
Latitude
Unknown
Longitude
Unknown
Altitude
Unknown
Speed
Unknown
Apparent Right ascension
Unknown
Apparent Declination
Unknown
Sunlit
N/A
Visualization observer readout
Local Sidereal Time
08:42:00
Azimuth
Unknown
Elevation
Unknown
Doppler factor
Unknown
Orbital elements
Apogee altitude
767.292 km
Perigee altitude
664.832 km
Semi-major axis
7,094.199 km
Eccentricity
0.00722
Inclination
88.8857°
RAAN
260.7049°
Arg. of periapsis
253.4467°
True anomaly
106.67394°
Mean anomaly
105.88°
Eccentric anomaly
106.27717°
Mean motion
3.63235 °/min
Orbital period
99.11 mins
BSTAR
0.0002969
Loading maneuver chart data...
Computing Atmospheric mass density...
Loading historical data...
Loading historical data...
Loading historical data...
Loading historical data...
Loading historical data...
Loading historical data...
Loading historical data...

Documentation

Showing up to 5 results
|